This demonstration page uses our WeatherBlox Daily Observations layout. Learn more.

Left ArrowRight Arrow

Hourly Observations for May 20, 2021

Temp ( °F °C ) Dew Point ( °F °C ) Humidity (%) Winds ( mph kmh ) Pressure ( in mb ) Visibility ( mi km ) Precip ( " mm )
12:15 am 00:15 Clear 68 20 60 15.5 75 75 ESE 5 7 30.25 1024 10 16 0.00 0.00
12:35 am 00:35 Clear 67 19.5 60 15.4 77 77 ESE 5 7 30.25 1024 10 16 0.00 0.00
12:55 am 00:55 Clear 67 19.4 60 15.3 77 77 ESE 6 9 30.25 1024 10 16 0.00 0.00
1:15 am 01:15 Clear 68 19.8 59 15 74 74 ESE 7 11 30.25 1024 10 16 0.00 0.00
1:35 am 01:35 Clear 68 19.9 59 15 74 74 SE 7 11 30.25 1024 10 16 0.00 0.00
1:55 am 01:55 Clear 68 19.9 59 14.8 73 73 ESE 6 9 30.25 1024 10 16 0.00 0.00
2:15 am 02:15 Clear 67 19.5 58 14.7 74 74 ESE 5 7 30.24 1024 10 16 0.00 0.00
2:35 am 02:35 Clear 66 19 59 14.8 77 77 ESE 3 6 30.24 1024 10 16 0.00 0.00
2:55 am 02:55 Clear 65 18.1 58 14.7 81 81 SE 5 7 30.24 1024 10 16 0.00 0.00
3:15 am 03:15 Clear 65 18.1 58 14.6 80 80 SE 3 6 30.25 1024 10 16 0.00 0.00
3:35 am 03:35 Clear 64 17.6 58 14.6 83 83 SE 3 6 30.25 1025 10 16 0.00 0.00
3:55 am 03:55 Clear 63 17.2 58 14.6 85 85 SE 3 6 30.26 1025 10 16 0.00 0.00
4:15 am 04:15 Clear 63 17 58 14.4 85 85 Calm 30.26 1025 10 16 0.00 0.00
4:35 am 04:35 Clear 62 16.7 58 14.3 86 86 SSE 3 6 30.27 1025 10 16 0.00 0.00
4:55 am 04:55 Clear 61 16.2 58 14.3 89 89 SE 5 7 30.27 1025 10 16 0.00 0.00
5:15 am 05:15 Clear 61 16 57 14 88 88 SSE 3 6 30.27 1025 10 16 0.00 0.00
5:35 am 05:35 Clear 62 16.6 57 14 85 85 S 3 6 30.28 1025 10 16 0.00 0.00
5:55 am 05:55 Clear 60 15.8 57 13.7 87 87 SSE 3 6 30.28 1025 10 16 0.00 0.00
6:15 am 06:15 Clear 61 16 57 13.8 87 87 S 3 6 30.29 1026 10 16 0.00 0.00
6:35 am 06:35 Sunny 60 15.8 57 13.7 87 87 Calm 30.29 1026 10 16 0.00 0.00
6:55 am 06:55 Sunny 62 16.4 57 14 86 86 SE 3 6 30.29 1026 10 16 0.00 0.00
7:15 am 07:15 Sunny 62 16.4 58 14.3 87 87 SE 3 6 30.30 1026 10 16 0.00 0.00
7:35 am 07:35 Sunny 64 17.6 59 14.9 84 84 SE 5 7 30.30 1026 10 16 0.00 0.00
7:55 am 07:55 Sunny 65 18.6 60 15.3 81 81 SSE 6 9 30.30 1026 10 16 0.00 0.00
8:15 am 08:15 Sunny 67 19.5 60 15.5 78 78 SSE 7 11 30.31 1026 10 16 0.00 0.00
8:35 am 08:35 Sunny 69 20.5 60 15.8 75 75 SSE 7 11 30.30 1026 10 16 0.00 0.00
8:55 am 08:55 Sunny 70 21.1 61 16 73 73 S 8 13 30.30 1026 10 16 0.00 0.00
9:15 am 09:15 Sunny 72 22 60 15.6 67 67 S 5 7 30.30 1026 10 16 0.00 0.00
9:35 am 09:35 Sunny 73 22.9 60 15.4 63 63 S 8 13 30.30 1026 10 16 0.00 0.00
9:55 am 09:55 Sunny 74 23.4 59 15.1 60 60 S 10 17 30.30 1026 10 16 0.00 0.00
10:15 am 10:15 Sunny 75 23.8 59 15.1 58 58 SSW 10 17 30.30 1026 10 16 0.00 0.00
10:35 am 10:35 Sunny 76 24.2 60 15.6 59 59 S 9 15 30.30 1026 10 16 0.00 0.00
10:55 am 10:55 Sunny 76 24.6 60 15.5 57 57 S 9 15 30.30 1026 10 16 0.00 0.00
11:15 am 11:15 Sunny 77 25.1 60 15.8 56 56 S 10 17 30.30 1026 10 16 0.00 0.00
11:35 am 11:35 Sunny 77 25 60 15.4 55 55 S 10 17 30.30 1026 10 16 0.00 0.00
11:55 am 11:55 Sunny 78 25.5 60 15.6 54 54 SSW 7 11 30.30 1026 10 16 0.00 0.00
12:15 pm 12:15 Sunny 78 25.8 61 16 55 55 S 8 13 30.30 1026 10 16 0.00 0.00
12:35 pm 12:35 Sunny 79 26 59 15.2 51 51 SSE 7 11 30.29 1026 10 16 0.00 0.00
12:55 pm 12:55 Sunny 79 26.1 59 15 50 50 SSW 9 15 30.29 1026 10 16 0.00 0.00
1:15 pm 13:15 Sunny 80 26.7 59 14.9 48 48 S 8 13 30.28 1026 10 16 0.00 0.00
1:35 pm 13:35 Partly Cloudy 80 26.9 59 15 48 48 S 7 11 30.27 1025 10 16 0.00 0.00
1:55 pm 13:55 Partly Cloudy 82 27.8 58 14.3 44 44 S 9 15 30.27 1025 10 16 0.00 0.00
2:15 pm 14:15 Partly Cloudy 82 27.8 58 14.6 44 44 S 9 15 30.26 1025 10 16 0.00 0.00
2:35 pm 14:35 Partly Cloudy 81 27.4 58 14.5 45 45 S 15 24 30.26 1025 10 16 0.00 0.00
2:55 pm 14:55 Partly Cloudy 83 28.3 58 14.4 43 43 S 13 20 30.25 1024 10 16 0.00 0.00
3:15 pm 15:15 Mostly Cloudy 83 28.5 59 14.8 43 43 S 13 20 30.24 1024 10 16 0.00 0.00
3:35 pm 15:35 Mostly Cloudy 83 28.4 58 14.6 43 43 S 13 20 30.24 1024 10 16 0.00 0.00
3:55 pm 15:55 Mostly Cloudy 84 28.7 58 14.5 42 42 SSE 10 17 30.23 1024 10 16 0.00 0.00
4:15 pm 16:15 Mostly Cloudy 83 28.2 57 13.9 42 42 SSE 13 20 30.23 1024 10 16 0.00 0.00
4:35 pm 16:35 Mostly Cloudy 83 28.6 58 14.2 41 41 S 12 19 30.22 1023 10 16 0.00 0.00
4:55 pm 16:55 Partly Cloudy 83 28.6 57 13.7 40 40 SSW 12 19 30.22 1023 10 16 0.00 0.00
5:15 pm 17:15 Mostly Cloudy 84 28.8 56 13.3 39 39 SE 15 24 30.23 1024 10 16 0.00 0.00
5:35 pm 17:35 Mostly Cloudy 84 29 58 14.2 40 40 S 13 20 30.22 1023 10 16 0.00 0.00
5:55 pm 17:55 Mostly Cloudy 83 28.6 56 13.6 40 40 S 14 22 30.22 1023 10 16 0.00 0.00
6:15 pm 18:15 Cloudy 84 28.7 57 13.9 40 40 SSE 8 13 30.22 1023 10 16 0.00 0.00
6:35 pm 18:35 Partly Cloudy 81 27.1 56 13.4 43 43 S 9 15 30.22 1023 10 16 0.00 0.00
6:55 pm 18:55 Sunny 82 27.5 57 13.9 43 43 S 8 13 30.22 1023 10 16 0.00 0.00
7:15 pm 19:15 Sunny 80 26.5 57 13.7 45 45 S 8 13 30.23 1024 10 16 0.00 0.00
7:35 pm 19:35 Sunny 79 26.2 58 14.2 48 48 S 5 7 30.23 1024 10 16 0.00 0.00
7:55 pm 19:55 Sunny 80 26.4 57 14 46 46 S 3 6 30.24 1024 10 16 0.00 0.00
8:15 pm 20:15 Sunny 79 25.9 59 14.8 50 50 SE 3 6 30.24 1024 10 16 0.00 0.00
8:35 pm 20:35 Sunny 78 25.3 58 14.4 51 51 SSE 5 7 30.24 1024 10 16 0.00 0.00
8:55 pm 20:55 Sunny 76 24.2 58 14.7 55 55 SSE 5 7 30.24 1024 10 16 0.00 0.00
9:15 pm 21:15 Clear 74 23.1 59 15.2 61 61 SSE 3 6 30.26 1025 10 16 0.00 0.00
9:35 pm 21:35 Clear 72 22.1 60 15.7 67 67 Calm 30.26 1025 10 16 0.00 0.00
9:55 pm 21:55 Clear 71 21.4 59 15.2 68 68 Calm 30.27 1025 10 16 0.00 0.00
10:15 pm 22:15 Clear 69 20.5 61 16.3 77 77 Calm 30.27 1025 10 16 0.00 0.00
10:35 pm 22:35 Clear 68 20.2 60 15.6 75 75 Calm 30.29 1026 10 16 0.00 0.00
10:55 pm 22:55 Clear 67 19.6 61 16.2 81 81 Calm 30.29 1026 10 16 0.00 0.00
11:15 pm 23:15 Clear 68 20.1 59 15.1 73 73 Calm 30.29 1026 10 16 0.00 0.00
11:35 pm 23:35 Clear 68 20.1 59 14.9 72 72 Calm 30.29 1026 10 16 0.00 0.00
11:55 pm 23:55 Partly Cloudy 68 19.8 59 15 74 74 SE 3 6 30.29 1026 10 16 0.00 0.00

Powered by AerisWeather